London-Corbin, KY

5:32 PM EDT on April 28, 2017 (GMT -0400)
London-Corbin / McKee

Weather History for KLOZ - March, 2014

Change the Weather History Date:

Sunday, March 23, 2014

  Actual Average Record
Temperature  
Mean Temperature 42 °F 49 °F  
Max Temperature 51 °F 61 °F 81 °F (2007)
Min Temperature 32 °F 38 °F 16 °F (1960)
Degree Days  
Heating Degree Days 23 16  
Month to date heating degree days 478 433  
Since 1 July heating degree days 3985 3709  
Cooling Degree Days 0 0  
Month to date cooling degree days 0 0  
Year to date cooling degree days 0 0  
Moisture  
Dew Point 26 °F    
Average Humidity 51    
Maximum Humidity 65    
Minimum Humidity 36    
Precipitation  
Precipitation 0.00 in 0.13 in 1.45 in (1993)
Month to date precipitation 3.20 3.00  
Year to date precipitation 9.71  
Sea Level Pressure  
Sea Level Pressure 30.17 in    
Wind  
Wind Speed 9 mph (North)    
Max Wind Speed 20 mph    
Max Gust Speed 26 mph    
Visibility 10 miles    
Events      
T = Trace of Precipitation, MM = Missing Value Source: NWS Daily Summary

Daily Weather History Graph

Daily Weather History Graph

Search for Another Location

Airport or City:

Trip Planner

Search our weather history database for the weather conditions in past years. The results will help you decide how hot, cold, wet, or windy it might be!

Date:

Astronomy

Mar. 23, 2014 Rise Set
Actual Time 7:35 AM EDT 7:50 PM EDT
Civil Twilight 7:09 AM EDT 8:16 PM EDT
Nautical Twilight 6:39 AM EDT 8:47 PM EDT
Astronomical Twilight 6:08 AM EDT 9:18 PM EDT
Moon 2:00 AM EDT (3/23) 12:22 PM EDT (3/23)
Length of Visible Light 13h 07m
Length of Day
12h 15m
Waning Gibbous, 55% of the Moon is Illuminated
Mar 23
Waning Gibbous
Mar 23
Last Quarter
Mar 30
New
Apr 7
First Quarter
Apr 15
Full

Hourly Weather History & Observations

Time (EDT) Temp. Windchill Dew Point Humidity Pressure Visibility Wind Dir Wind Speed Gust Speed Precip Events Conditions
12:53 AM 46.0 °F 41.4 °F 30.0 °F 54% 30.10 in 10.0 mi North 9.2 mph - N/A   Clear
1:53 AM 44.1 °F 40.1 °F 30.9 °F 60% 30.11 in 10.0 mi NNE 6.9 mph - N/A   Mostly Cloudy
2:53 AM 42.1 °F 36.1 °F 30.9 °F 65% 30.10 in 10.0 mi NNE 10.4 mph - N/A   Partly Cloudy
3:53 AM 41.0 °F 35.2 °F 30.9 °F 67% 30.10 in 10.0 mi North 9.2 mph - N/A   Mostly Cloudy
4:53 AM 39.9 °F 33.9 °F 28.9 °F 65% 30.11 in 10.0 mi NNE 9.2 mph - N/A   Overcast
5:53 AM 39.9 °F 35.8 °F 28.9 °F 65% 30.13 in 10.0 mi NNE 5.8 mph - N/A   Overcast
6:53 AM 39.0 °F 34.0 °F 28.9 °F 67% 30.13 in 10.0 mi NNE 6.9 mph - N/A   Overcast
7:53 AM 39.0 °F 31.8 °F 28.0 °F 65% 30.14 in 10.0 mi NNE 11.5 mph - N/A   Overcast
8:53 AM 39.0 °F 32.8 °F 28.0 °F 65% 30.17 in 10.0 mi North 9.2 mph - N/A   Overcast
9:53 AM 39.9 °F 33.9 °F 28.0 °F 63% 30.19 in 10.0 mi NNE 9.2 mph - N/A   Scattered Clouds
10:53 AM 43.0 °F 36.8 °F 26.1 °F 51% 30.18 in 10.0 mi NNE 11.5 mph - N/A   Clear
11:53 AM 46.9 °F - 26.1 °F 44% 30.19 in 10.0 mi NNE 11.5 mph - N/A   Scattered Clouds
12:53 PM 48.0 °F - 26.1 °F 42% 30.19 in 10.0 mi North 9.2 mph 17.3 mph N/A   Partly Cloudy
1:53 PM 48.9 °F - 25.0 °F 39% 30.17 in 10.0 mi North 9.2 mph 17.3 mph N/A   Mostly Cloudy
2:53 PM 50.0 °F - 25.0 °F 38% 30.16 in 10.0 mi NNW 10.4 mph 18.4 mph N/A   Clear
3:53 PM 50.0 °F - 26.1 °F 39% 30.15 in 10.0 mi NW 11.5 mph 16.1 mph N/A   Scattered Clouds
4:53 PM 46.0 °F 39.9 °F 23.0 °F 40% 30.17 in 10.0 mi NW 13.8 mph 20.7 mph N/A   Partly Cloudy
5:53 PM 45.0 °F 38.9 °F 21.9 °F 40% 30.19 in 10.0 mi NNW 12.7 mph 19.6 mph N/A   Overcast
6:53 PM 44.1 °F 39.0 °F 21.9 °F 42% 30.22 in 10.0 mi NW 9.2 mph - N/A   Mostly Cloudy
7:53 PM 41.0 °F 35.8 °F 21.9 °F 47% 30.23 in 10.0 mi North 8.1 mph - N/A   Mostly Cloudy
8:53 PM 39.0 °F 34.8 °F 21.0 °F 49% 30.25 in 10.0 mi North 5.8 mph - N/A   Clear
9:53 PM 37.9 °F 33.5 °F 19.9 °F 48% 30.27 in 10.0 mi North 5.8 mph - N/A   Partly Cloudy
10:53 PM 36.0 °F 31.1 °F 19.9 °F 52% 30.27 in 10.0 mi North 5.8 mph - N/A   Clear
11:53 PM 34.0 °F 28.0 °F 18.0 °F 52% 30.28 in 10.0 mi NNE 6.9 mph - N/A   Clear